Location: Kerguer�zec
(48.4509°N, 4.7600°W)
Time: 18:13:46
(UTC+00:00)

STARLINK-1244 - Pass Details

Date: 09 April 2020
Orbit: 549 x 551 km, 53.0° (Epoch: 26 May)

Event Time Altitude Azimuth Distance (km) Brightness Sun altitude
Rises 19:37:02 0° 291° (WNW) 2,732 10.0 -6.4°
Reaches altitude 10° 19:39:19 10° 296° (WNW) 1,837 8.1 -6.8°
Maximum altitude 19:43:25 53° 14° (NNE) 683 4.2 -7.4°
Drops below altitude 10° 19:47:31 10° 92° (E) 1,835 5.7 -8.0°
Enters shadow 19:47:41 - 93° (E) 1,902 5.8 -8.1°
